Simultaneous Nadir Overpasses (SNOs) Predictions

Prediction of SNOs between METOP-B and TERRA Satellite Orbit:

Table of predicted SNOs for the next 14.0 days since TLE Epoch: 2/16/2019
Index Date (METOP-B) Time (METOP-B) Lat,Lon (METOP-B) SZA (METOP-B ) Date (TERRA) Time (TERRA) Lat,Lon (TERRA) SZA (TERRA ) Distance(km) Time Diff (sec)
1 02/18/2019 13:15:52 -81.29,-151.89 84.79 02/18/2019 13:16:24 -81.29,-152.01 84.78 2.20 32
2 02/18/2019 14:06:32 81.29, 15.66 95.23 02/18/2019 14:05:50 81.30, 15.69 95.22 0.87 42
3 02/21/2019 08:50:17 -81.28, -85.79 85.82 02/21/2019 08:50:40 -81.28, -85.81 85.81 0.62 23
4 02/21/2019 09:40:57 81.29, 81.75 94.20 02/21/2019 09:40:06 81.28, 81.86 94.19 1.90 51
5 02/24/2019 04:24:40 -81.29, -19.31 86.82 02/24/2019 04:24:54 -81.29, -19.24 86.80 1.28 14
6 02/24/2019 05:15:20 81.29, 148.23 93.20 02/24/2019 05:14:20 81.29, 148.41 93.19 3.15 60
7 02/26/2019 23:59:04 -81.29, 47.16 87.84 02/26/2019 23:59:10 -81.28, 46.97 87.87 3.35 6
8 02/27/2019 00:49:43 81.29,-144.92 92.22 02/27/2019 00:48:35 81.30,-145.03 92.18 1.87 68
9 03/01/2019 18:42:48 81.28, -54.15 91.09 03/01/2019 18:43:58 81.28, -54.14 91.12 0.08 70




NCC Satellite Simultaneous Nadir Overpasses (SNOs) Prediction Service
